Location: Tierz
(42.1336°N, 0.3549°W)
Time: 18:10:27
(UTC+00:00)

Helios 1A Rocket - Pass Details

Date: 29 October 2020
Orbit: 563 x 586 km, 98.3° (Epoch: 03 December)

Event Time Altitude Azimuth Distance (km) Brightness Sun altitude
Rises 18:46:47 0° 177° (S) 2,793 6.4 -20.6°
Reaches altitude 10° 18:48:59 10° 183° (S) 1,895 5.6 -21.0°
Maximum altitude 18:52:59 51° 259° (W) 735 3.8 -21.7°
Drops below altitude 10° 18:57:00 10° 336° (NNW) 1,897 5.8 -22.5°
Sets 18:59:12 0° 342° (NNW) 2,797 6.7 -22.9°
